Weather History for PATO - October, 2012

Change the Weather History Date:

Wednesday, October 10, 2012

  Actual Average Record
Temperature  
Mean Temperature 41 °F -  
Max Temperature 45 °F - - ()
Min Temperature 36 °F - - ()
Degree Days  
Heating Degree Days 24    
Moisture  
Dew Point 40 °F    
Average Humidity 98    
Maximum Humidity 100    
Minimum Humidity 90    
Precipitation  
Precipitation 0.00 in - - ()
Sea Level Pressure  
Sea Level Pressure 30.01 in    
Wind  
Wind Speed 2 mph (SE)    
Max Wind Speed 6 mph    
Max Gust Speed -    
Visibility 8 miles    
Events      
T = Trace of Precipitation, MM = Missing Value Source: NWS Daily Summary

Daily Weather History Graph

Daily Weather History Graph

Search for Another Location

Airport or City:

Trip Planner

Search our weather history database for the weather conditions in past years. The results will help you decide how hot, cold, wet, or windy it might be!

Date:

Astronomy

Oct. 10, 2012 Rise Set
Actual Time 8:25 AM AKDT 6:57 PM AKDT
Civil Twilight 7:42 AM AKDT 7:40 PM AKDT
Nautical Twilight 6:53 AM AKDT 8:29 PM AKDT
Astronomical Twilight 6:02 AM AKDT 9:19 PM AKDT
Moon 1:54 AM AKDT (10/10) 5:11 PM AKDT (10/10)
Length of Visible Light 11h 57m
Length of Day
10h 31m
Waning Crescent, 26% of the Moon is Illuminated
Oct 10
Waning Crescent
Oct 15
New
Oct 21
First Quarter
Oct 29
Full
Nov 6
Last Quarter

Hourly Weather History & Observations

Time (AKDT) Temp. Windchill Dew Point Humidity Pressure Visibility Wind Dir Wind Speed Gust Speed Precip Events Conditions
1:28 AM 43.0 °F 39.5 °F 43.0 °F 100% 30.09 in 9.0 mi WSW 5.8 mph - N/A   Overcast
1:53 AM 43.0 °F 39.5 °F 43.0 °F 100% 30.09 in 10.0 mi West 5.8 mph - N/A   Overcast
2:53 AM 43.0 °F 40.3 °F 43.0 °F 100% 30.08 in 8.0 mi WSW 4.6 mph - N/A   Overcast
3:53 AM 43.0 °F 41.3 °F 43.0 °F 100% 30.08 in 5.0 mi West 3.5 mph - N/A   Overcast
4:16 AM 43.0 °F - 43.0 °F 100% 30.07 in 4.0 mi Calm Calm - N/A   Overcast
5:53 AM 43.0 °F - 43.0 °F 100% 30.06 in 4.0 mi Calm Calm - N/A   Overcast
6:04 AM 43.0 °F - 43.0 °F 100% 30.05 in 5.0 mi Calm Calm - N/A   Overcast
6:44 AM 42.1 °F - 42.1 °F 100% 30.04 in 2.5 mi Calm Calm - N/A   Overcast
6:51 AM 42.8 °F - 42.8 °F 100% 30.04 in 4.0 mi Calm Calm - N/A   Overcast
6:53 AM 43.0 °F - 43.0 °F 100% 30.05 in 5.0 mi Calm Calm - N/A   Overcast
7:40 AM 41.0 °F 39.0 °F 41.0 °F 100% 30.04 in 2.5 mi East 3.5 mph - N/A   Overcast
7:53 AM 41.0 °F - 41.0 °F 100% 30.04 in 2.0 mi Calm Calm - N/A   Overcast
8:05 AM 41.0 °F - 41.0 °F 100% 30.04 in 5.0 mi Calm Calm - N/A   Overcast
8:12 AM 41.0 °F 39.0 °F 41.0 °F 100% 30.04 in 10.0 mi ESE 3.5 mph - N/A   Overcast
8:53 AM 41.0 °F 39.0 °F 41.0 °F 100% 30.04 in 3.0 mi East 3.5 mph - N/A   Overcast
9:53 AM 42.1 °F - 41.0 °F 96% 30.04 in 6.0 mi Calm Calm - N/A   Overcast
10:11 AM 41.0 °F - 41.0 °F 100% 30.04 in 5.0 mi Calm Calm - N/A   Overcast
10:31 AM 41.0 °F 39.0 °F 41.0 °F 100% 30.04 in 4.0 mi East 3.5 mph - N/A   Overcast
10:53 AM 41.0 °F - 41.0 °F 100% 30.04 in 7.0 mi Calm Calm - N/A   Overcast
11:02 AM 42.1 °F - 41.0 °F 96% 30.03 in 7.0 mi Calm Calm - N/A   Overcast
11:53 AM 42.1 °F 40.2 °F 41.0 °F 96% 30.03 in 6.0 mi East 3.5 mph - N/A   Overcast
12:53 PM 43.0 °F 41.3 °F 41.0 °F 93% 30.02 in 10.0 mi SE 3.5 mph - N/A   Overcast
1:53 PM 43.0 °F - 41.0 °F 93% 30.03 in 10.0 mi Calm Calm - N/A   Overcast
2:53 PM 44.1 °F 42.5 °F 42.1 °F 93% 30.01 in 10.0 mi ENE 3.5 mph - N/A   Overcast
3:53 PM 44.1 °F 42.5 °F 42.1 °F 93% 30.00 in 10.0 mi East 3.5 mph - N/A   Overcast
5:53 PM 45.0 °F - 42.1 °F 90% 29.99 in 10.0 mi Calm Calm - N/A   Overcast
6:53 PM 43.0 °F - 41.0 °F 93% 29.98 in 10.0 mi Calm Calm - N/A   Overcast
7:53 PM 43.0 °F - 41.0 °F 93% 29.98 in 10.0 mi Calm Calm - N/A   Overcast
8:53 PM 39.0 °F - 37.9 °F 96% 29.97 in 10.0 mi Calm Calm - N/A   Mostly Cloudy
9:06 PM 39.0 °F 36.8 °F 37.9 °F 96% 29.97 in 10.0 mi WSW 3.5 mph - N/A   Mostly Cloudy
9:15 PM 37.9 °F - 37.9 °F 100% 29.97 in 10.0 mi Calm Calm - N/A   Mostly Cloudy
9:28 PM 37.0 °F - 37.0 °F 100% 29.97 in 10.0 mi Calm Calm - N/A   Overcast
9:36 PM 37.9 °F - 37.9 °F 100% 29.96 in 10.0 mi Calm Calm - N/A   Overcast
9:43 PM 39.9 °F 37.8 °F 39.0 °F 97% 29.96 in 10.0 mi SE 3.5 mph - N/A   Overcast
9:53 PM 37.9 °F - 37.9 °F 100% 29.97 in 10.0 mi Calm Calm - N/A   Overcast
10:08 PM 37.9 °F - 37.9 °F 100% 29.96 in 10.0 mi Calm Calm - N/A   Overcast
10:22 PM 37.0 °F - 37.0 °F 100% 29.96 in 10.0 mi Calm Calm - N/A   Mostly Cloudy
10:53 PM 37.0 °F - 37.0 °F 100% 29.95 in 10.0 mi Calm Calm - N/A   Overcast
11:08 PM 37.9 °F - 37.9 °F 100% 29.94 in 10.0 mi Calm Calm - N/A   Overcast
11:17 PM 37.9 °F - 37.9 °F 100% 29.94 in 10.0 mi Calm Calm - N/A   Overcast
11:28 PM 37.0 °F - 37.0 °F 100% 29.94 in 10.0 mi Calm Calm - N/A   Mostly Cloudy
11:53 PM 36.0 °F - 36.0 °F 100% 29.94 in 10.0 mi Calm Calm - N/A   Mostly Cloudy